Location: Aragoneses
(41.0275°N, 4.3847°W)
Time: 03:34:53
(UTC+00:00)

Cosmos 1937 Rocket - Pass Details

Date: 11 December 2025
Orbit: 743 x 775 km, 74.0° (Epoch: 13 January)

Event Time Altitude Azimuth Distance (km) Brightness Sun altitude
Rises 18:38:49 0° 189° (S) 3,204 7.0 -19.9°
Reaches altitude 10° 18:41:11 10° 186° (S) 2,278 6.2 -20.4°
Maximum altitude 18:46:17 64° 106° (ESE) 836 3.4 -21.3°
Enters shadow 18:47:40 45° 47° (NE) 1,017 3.7 -21.6°
